Regional Weather Roundup
Issued by NWS

Home | Current Version | Previous Version | Text Only | Print | Product List | Glossary Off
Versions: 1 2 3 4 5 6 7 8 9 10 11 12 13 14 15 16 17 18 19 20 21 22 23 24 25 26 27 28

000
ASUS45 KCYS 242310
RWRWY

WYOMING REGIONAL WEATHER ROUNDUP
NATIONAL WEATHER SERVICE CHEYENNE WY
500 PM MDT SUN SEP 24 2017

NOTE:  "FAIR" INDICATES FEW OR NO CLOUDS BELOW 12,000 FEET
WITH NO SIGNIFICANT WEATHER AND/OR OBSTRUCTIONS TO VISIBILITY.

WYZ001-250000-
YELLOWSTONE NATIONAL PARK

CITY           SKY/WX    TMP DP  RH WIND       PRES   REMARKS
LK YELLOWSTONE NOT AVBL
W YELLOWSTONE  NOT AVBL

$$
WYZ002>013-054>058-071-098>099-250000-
NORTHERN WYOMING

CITY           SKY/WX    TMP DP  RH WIND       PRES   REMARKS
JACKSON        CLOUDY    47  34  60 W8        29.99R
CODY           CLOUDY    45  33  63 N7        30.09S
GREYBULL       CLOUDY    51  38  60 NW6       30.05R
WORLAND        LGT RAIN  44  43  96 SW5       30.07R FOG
SHERIDAN       CLOUDY    47  39  74 NE6       30.11R
BUFFALO        CLOUDY    43  35  73 NE8       30.10S
GILLETTE       CLOUDY    43  39  86 N13       30.09S
HULETT         CLOUDY    41  39  93 N6        30.10S
NEWCASTLE      CLOUDY    48  41  76 SE7       30.06R

$$
WYZ014>020-022>026-101>103-250000-
CENTRAL WYOMING

CITY           SKY/WX    TMP DP  RH WIND       PRES   REMARKS
BIG PINEY      PTSUNNY   40  36  86 NE13      30.02R WCI  32
PINEDALE       CLOUDY    36  34  93 CALM      30.05R
DUBOIS         FLURRIES  34  32  93 SE15      30.05R WCI  24
LANDER         CLOUDY    38  36  92 CALM      30.08S
RIVERTON       LGT RAIN  38  36  92 CALM      30.09R
CASPER         CLOUDY    40  38  93 NE15      30.06S WCI  32
DOUGLAS        LGT RAIN  43  40  89 N7        30.07S

$$
WYZ021-027>030-104>119-250000-
SOUTHERN WYOMING

CITY           SKY/WX    TMP DP  RH WIND       PRES   REMARKS
EVANSTON       LGT RAIN  36  36 100 NW8       30.00R WCI  30
FORT BRIDGER   LGT RAIN  36  36 100 W9        30.03R WCI  29
ROCK SPRINGS   TSTM      36  33  89 E12G29    30.01R FOG     WCI  28
DIXON          CLOUDY    50  36  58 SE9       29.98R THUNDER
RAWLINS        CLOUDY    41  38  89 NE13      30.02R
SARATOGA       RAIN      43  41  93 NW9G16    30.00R
LARAMIE        LGT RAIN  41  36  82 E16G25    29.98S
CHEYENNE       LGT RAIN  43  41  93 E12       30.01S FOG
TORRINGTON     CLOUDY    50  43  77 NE10      30.01S
PINE BLUFFS    CLOUDY    46  45  93 MISG      30.01S

$$




USA.gov is the U.S. government's official web portal to all federal, state and local government web resources and services.